This demonstration page uses our WeatherBlox Daily Observations layout. Learn more.

Left ArrowRight Arrow

39.08367, -84.50855

Hourly Observations for May 19, 2020

Temp ( °F °C ) Dew Point ( °F °C ) Humidity (%) Winds ( mph kmh ) Pressure ( in mb ) Visibility ( mi km ) Precip ( " mm )
12:36 am 00:36 Cloudy 61 16.1 60 15.6 97 97 Calm 29.77 1008 10 16.0934 0 0
12:53 am 00:53 Cloudy 61 16.1 60 15.6 97 97 Calm 29.77 1008 9 14.48406 0 0
1:32 am 01:32 Cloudy with Mist and Fog 61 16.1 61 16.1 100 100 Calm 29.78 1008 3 4.82802 0 0
1:41 am 01:41 Cloudy with Light Rain 61 16.1 61 16.1 100 100 Calm 29.77 1008 2 3.21868 0.001 0.001
1:53 am 01:53 Cloudy with Light Rain 61 16.1 61 16.1 100 100 Calm 29.76 1008 4 6.43736 0.01 0.254
2:06 am 02:06 Cloudy with Light Rain 61 16.1 61 16.1 100 100 Calm 29.77 1008 4 6.43736 0.001 0.001
2:28 am 02:28 Cloudy with Light Rain 61 16.1 60 15.6 97 97 ENE 8 13 29.73 1007 4 6.43736 0.01 0.254
2:38 am 02:38 Cloudy with Light Rain 61 16.1 61 16.1 100 100 Calm 29.74 1007 4 6.43736 0.02 0.508
2:53 am 02:53 Cloudy with Light Rain 61 16.1 60 15.6 97 97 W 5 7 29.74 1007 7 11.26538 0.02 0.508
3:05 am 03:05 Cloudy with Light Rain 61 16.1 61 16.1 100 100 W 3 6 29.74 1007 5 8.0467 0.01 0.254
3:53 am 03:53 Cloudy with Rain 61 16.1 61 16.1 100 100 NE 5 7 29.71 1006 4 6.43736 0.06 1.524
4:02 am 04:02 Cloudy with Rain 61 16.1 61 16.1 100 100 NNE 7 11 29.71 1006 4 6.43736 0.01 0.254
4:32 am 04:32 Cloudy with Rain 62 16.7 62 16.7 100 100 Calm 29.7 1006 3 4.82802 0.11 2.794
4:53 am 04:53 Cloudy with Light Rain 62 16.7 62 16.7 100 100 Calm 29.7 1006 5 8.0467 0.15 3.81
5:10 am 05:10 Cloudy with Heavy Rain 63 17.2 62 16.7 97 97 N 3 6 29.71 1006 1.75 2.816345 0.09 2.286
5:20 am 05:20 Cloudy with Heavy Rain 62 16.7 62 16.7 100 100 NE 3 6 29.71 1006 0.75 1.207005 0.39 9.906
5:22 am 05:22 Cloudy with Heavy Rain 62 16.7 62 16.7 100 100 N 3 6 29.71 1006 1 1.60934 0.42 10.668
5:40 am 05:40 Cloudy with Heavy Rain 62 16.7 62 16.7 100 100 WNW 8 13 29.72 1007 1.75 2.816345 0.64 16.256
5:50 am 05:50 Cloudy with Heavy Rain 63 17 63 17 100 100 N 10 17 29.71 1006 2 3.21868 0.75 19.05
5:53 am 05:53 Cloudy with Heavy Rain 63 17.2 62 16.7 97 97 N 12 19 29.7 1006 2 3.21868 0.79 20.066
6:00 am 06:00 Cloudy with Heavy Rain 63 17.2 62 16.7 97 97 N 16 26 29.69 1006 1.75 2.816345 0.09 2.286
6:13 am 06:13 Cloudy with Rain 63 17.2 62 16.7 97 97 N 17 28 29.69 1006 3 4.82802 0.15 3.81
6:19 am 06:19 Cloudy with Nearby Thunderstorms 63 17.2 62 16.7 97 97 N 9 15 29.7 1006 3 4.82802 0.16 4.064
6:27 am 06:27 Cloudy with Nearby Thunderstorms 63 17.2 62 16.7 97 97 NE 8 13 29.7 1006 1.75 2.816345 0.27 6.858
6:53 am 06:53 Cloudy with Heavy Rain 63 17 63 17 100 100 NE 13 20 29.71 1006 2.5 4.02335 0 0
7:53 am 07:53 Cloudy with Light Rain 63 17 63 17 100 100 NNE 7 11 29.71 1006 8 12.87472 0 0
8:53 am 08:53 Cloudy with Light Rain 64 18 63 17 94 94 ENE 7 11 29.72 1007 10 16.0934 0 0
9:53 am 09:53 Cloudy with Rain 64 18 63 17 94 94 ENE 12 19 29.75 1008 3 4.82802 0 0
11:53 am 11:53 Cloudy with Light Rain 64 18 63 17 94 94 undefined N/A 29.81 1010 8 12.87472 0 0
12:53 pm 12:53 Cloudy with Light Rain 64 18 63 17 94 94 undefined N/A 29.82 1010 9 14.48406 0 0
1:53 pm 13:53 Cloudy with Rain 63 17 61 16 94 94 ENE 7 11 29.83 1010 5 8.0467 0 0
2:21 pm 14:21 Cloudy with Light Rain 64 17.8 61 16.1 90 90 ENE 9 15 29.83 1010 10 16.0934 0.01 0.254
2:53 pm 14:53 Cloudy with Light Rain 62 16.7 60 15.6 93 93 ENE 13 20 29.84 1011 8 12.87472 0.04 1.016
3:34 pm 15:34 Cloudy with Light Rain 61 16.1 59 15 93 93 E 10 17 29.86 1011 8 12.87472 0.05 1.27
3:41 pm 15:41 Cloudy with Rain 61 16.1 58 14.4 90 90 ENE 13 20 29.86 1011 6 9.65604 0.06 1.524
3:53 pm 15:53 Cloudy with Light Rain 61 16.1 59 15 93 93 ENE 9 15 29.85 1011 10 16.0934 0.07 1.778
4:53 pm 16:53 Cloudy with Light Rain 61 16.1 60 15.6 97 97 VRB 6 9 29.86 1011 7 11.26538 0.03 0.762
5:24 pm 17:24 Cloudy 61 16.1 58 14.4 90 90 E 6 9 29.88 1012 10 16.0934 0.01 0.254
5:53 pm 17:53 Cloudy 61 16.1 57 13.9 87 87 VRB 7 11 29.88 1012 10 16.0934 0.01 0.254
6:53 pm 18:53 Cloudy 60 15.6 57 13.9 90 90 ENE 9 15 29.89 1012 10 16.0934 0 0
7:53 pm 19:53 Cloudy with Mist and Fog 59 15 56 13.3 90 90 ENE 7 11 29.91 1013 5 8.0467 0 0
8:53 pm 20:53 Cloudy with Light Rain 58 14.4 56 13.3 93 93 ENE 8 13 29.93 1014 7 11.26538 0.001 0.001
9:53 pm 21:53 Cloudy with Light Rain 58 14.4 56 13.3 93 93 ENE 7 11 29.95 1014 5 8.0467 0.001 0.001
10:53 pm 22:53 Cloudy with Light Rain 58 14.4 55 12.8 90 90 ENE 12 19 29.97 1015 10 16.0934 0.001 0.001
11:53 pm 23:53 Cloudy 58 14.4 54 12.2 87 87 ENE 8 13 29.98 1015 10 16.0934 0.001 0.001

Powered by AerisWeather